Starlink 31990

operational
NORAD ID: 60024 Int'l Des: 2024-111 Owner: SPXS Country: US Constellation: starlink
LEOCIRCULAR

Über Starlink 31990

Beschreibung wird geladen...

Live-Position

3D-Globus wird geladen...

Nächste Überflüge

Höhenverlauf

Altitude vs Time

uPlot chart will show altitude changes over time

Zweizeiliger Elementsatz

1 60024U 24111J 26035.70358548 -.00000405 00000-0 -15364-5 0 9992
2 60024 53.1581 228.8092 0001217 87.0491 273.0649 15.30192604 93989
Epoch: 4. Feb. 2026 • Age: 20 hours

Aktueller Status

Höhe 494.6 km
Geschwindigkeit 7.62 km/s
Subsatellitenpunkt -53.23°S, 170.32°E
Startdatum 8. Juni 2024
Alter 1.6 years
Typ internet

Technische Details

Klassifizierung Payload
Masse 730.00 kg
Trockenmasse 700.00 kg
Gesamtmasse 730.00 kg
Länge 0.30 m
Durchmesser 4.10 m
Spannweite 29.00 m
Form Box + pan
Hersteller SPXS
Bus-Typ Starlink V2M
Phasenstatus In Orbit
Besitzer/Staat SPXS/US

Große Konstellationen

Loading constellations...